M I D A S
Marine Information and Data Acquisition System
Tripno 1565 of the Zeeleeuw from 2008-09-12 08:00:00 to 2008-09-12 17:00:00
Back to CruiseResearch ActivitiesStationsMapUnderway DataData graphs

EquipmentUnitsComments
TimeDGPSUTC
LatitudeDGPSDM.mWGS84
LongitudeDGPSDM.mWGS84
SpeedMeteo Stationm/sRelative wind speed
DirectionMeteo StationdegRelative wind direction
TemperatureMeteo Stationdeg CelciusAir temperature
PressureMeteo StationPaAtmospheric pressure
HumidityMeteo Station%Relative humidity
Missing or incorrect values are displayed as -999
Metereological data collected by the RV Zeeleeuw from 2008-09-12 08:00:00 to 2008-09-12 17:00:00
                                                                                    Next 1000 lines
Time Latitude Longitude Speed Direction Temperature Pressure Humidity
2008-09-12 08:00:20 51°33.41 2°54.046 -999 -999 -999 -999 -999
2008-09-12 08:00:30 51°33.411 2°54.043 -999 -999 -999 -999 -999
2008-09-12 08:00:40 51°33.412 2°54.04 -999 -999 -999 -999 -999
2008-09-12 08:00:50 51°33.414 2°54.036 -999 -999 -999 -999 -999
2008-09-12 08:01:00 51°33.415 2°54.033 -999 -999 -999 -999 -999
2008-09-12 08:01:10 51°33.416 2°54.029 -999 -999 -999 -999 -999
2008-09-12 08:01:20 51°33.417 2°54.026 -999 -999 -999 -999 -999
2008-09-12 08:01:30 51°33.418 2°54.022 -999 -999 -999 -999 -999
2008-09-12 08:01:40 51°33.419 2°54.019 -999 -999 -999 -999 -999
2008-09-12 08:01:50 51°33.421 2°54.015 -999 -999 -999 -999 -999
2008-09-12 08:02:00 51°33.422 2°54.011 -999 -999 -999 -999 -999
2008-09-12 08:02:10 51°33.423 2°54.008 -999 -999 -999 -999 -999
2008-09-12 08:02:20 51°33.424 2°54.004 -999 -999 -999 -999 -999
2008-09-12 08:02:30 51°33.425 2°54.001 -999 -999 -999 -999 -999
2008-09-12 08:02:40 51°33.427 2°53.998 -999 -999 -999 -999 -999
2008-09-12 08:02:50 51°33.428 2°53.994 -999 -999 -999 -999 -999
2008-09-12 08:03:00 51°33.43 2°53.991 -999 -999 -999 -999 -999
2008-09-12 08:03:10 51°33.431 2°53.988 -999 -999 -999 -999 -999
2008-09-12 08:03:20 51°33.433 2°53.985 -999 -999 -999 -999 -999
2008-09-12 08:03:30 51°33.434 2°53.983 -999 -999 -999 -999 -999
2008-09-12 08:03:40 51°33.436 2°53.979 -999 -999 -999 -999 -999
2008-09-12 08:03:50 51°33.438 2°53.976 -999 -999 -999 -999 -999
2008-09-12 08:04:00 51°33.439 2°53.973 -999 -999 -999 -999 -999
2008-09-12 08:04:10 51°33.441 2°53.97 -999 -999 -999 -999 -999
2008-09-12 08:04:20 51°33.442 2°53.966 -999 -999 -999 -999 -999
2008-09-12 08:04:30 51°33.443 2°53.963 -999 -999 -999 -999 -999
2008-09-12 08:04:40 51°33.445 2°53.959 -999 -999 -999 -999 -999
2008-09-12 08:04:50 51°33.446 2°53.956 -999 -999 -999 -999 -999
2008-09-12 08:05:00 51°33.447 2°53.952 -999 -999 -999 -999 -999
2008-09-12 08:05:10 51°33.448 2°53.95 -999 -999 -999 -999 -999
2008-09-12 08:05:20 51°33.449 2°53.947 -999 -999 -999 -999 -999
2008-09-12 08:05:30 51°33.45 2°53.946 -999 -999 -999 -999 -999
2008-09-12 08:05:40 51°33.45 2°53.943 -999 -999 -999 -999 -999
2008-09-12 08:05:50 51°33.45 2°53.942 -999 -999 -999 -999 -999
2008-09-12 08:06:00 51°33.45 2°53.94 -999 -999 -999 -999 -999
2008-09-12 08:06:10 51°33.45 2°53.938 -999 -999 -999 -999 -999
2008-09-12 08:06:20 51°33.45 2°53.936 -999 -999 -999 -999 -999
2008-09-12 08:06:30 51°33.45 2°53.935 -999 -999 -999 -999 -999
2008-09-12 08:06:40 51°33.45 2°53.934 -999 -999 -999 -999 -999
2008-09-12 08:06:50 51°33.45 2°53.933 -999 -999 -999 -999 -999
2008-09-12 08:07:00 51°33.449 2°53.932 -999 -999 -999 -999 -999
2008-09-12 08:07:10 51°33.449 2°53.931 -999 -999 -999 -999 -999
2008-09-12 08:07:20 51°33.448 2°53.931 -999 -999 -999 -999 -999
2008-09-12 08:07:30 51°33.448 2°53.931 -999 -999 -999 -999 -999
2008-09-12 08:07:40 51°33.447 2°53.931 -999 -999 -999 -999 -999
2008-09-12 08:07:50 51°33.447 2°53.931 -999 -999 -999 -999 -999
2008-09-12 08:08:00 51°33.446 2°53.932 -999 -999 -999 -999 -999
2008-09-12 08:08:10 51°33.446 2°53.932 -999 -999 -999 -999 -999
2008-09-12 08:08:20 51°33.445 2°53.932 -999 -999 -999 -999 -999
2008-09-12 08:08:30 51°33.444 2°53.933 -999 -999 -999 -999 -999
2008-09-12 08:08:40 51°33.443 2°53.934 -999 -999 -999 -999 -999
2008-09-12 08:08:50 51°33.442 2°53.934 -999 -999 -999 -999 -999
2008-09-12 08:09:00 51°33.442 2°53.935 -999 -999 -999 -999 -999
2008-09-12 08:09:10 51°33.441 2°53.936 -999 -999 -999 -999 -999
2008-09-12 08:09:20 51°33.439 2°53.937 -999 -999 -999 -999 -999
2008-09-12 08:09:30 51°33.438 2°53.938 -999 -999 -999 -999 -999
2008-09-12 08:09:40 51°33.437 2°53.94 -999 -999 -999 -999 -999
2008-09-12 08:09:50 51°33.436 2°53.941 -999 -999 -999 -999 -999
2008-09-12 08:10:00 51°33.435 2°53.942 -999 -999 -999 -999 -999
2008-09-12 08:10:10 51°33.434 2°53.943 -999 -999 -999 -999 -999
2008-09-12 08:10:20 51°33.432 2°53.945 -999 -999 -999 -999 -999
2008-09-12 08:10:30 51°33.431 2°53.946 -999 -999 -999 -999 -999
2008-09-12 08:10:40 51°33.43 2°53.948 -999 -999 -999 -999 -999
2008-09-12 08:10:50 51°33.428 2°53.949 -999 -999 -999 -999 -999
2008-09-12 08:11:00 51°33.427 2°53.951 -999 -999 -999 -999 -999
2008-09-12 08:11:10 51°33.426 2°53.952 -999 -999 -999 -999 -999
2008-09-12 08:11:20 51°33.424 2°53.954 -999 -999 -999 -999 -999
2008-09-12 08:11:30 51°33.423 2°53.956 -999 -999 -999 -999 -999
2008-09-12 08:11:40 51°33.422 2°53.957 -999 -999 -999 -999 -999
2008-09-12 08:11:50 51°33.42 2°53.959 -999 -999 -999 -999 -999
2008-09-12 08:12:00 51°33.419 2°53.96 -999 -999 -999 -999 -999
2008-09-12 08:12:10 51°33.417 2°53.962 -999 -999 -999 -999 -999
2008-09-12 08:12:20 51°33.416 2°53.963 -999 -999 -999 -999 -999
2008-09-12 08:12:30 51°33.414 2°53.965 -999 -999 -999 -999 -999
2008-09-12 08:12:40 51°33.413 2°53.967 -999 -999 -999 -999 -999
2008-09-12 08:12:50 51°33.412 2°53.968 -999 -999 -999 -999 -999
2008-09-12 08:13:00 51°33.41 2°53.97 -999 -999 -999 -999 -999
2008-09-12 08:13:10 51°33.409 2°53.972 -999 -999 -999 -999 -999
2008-09-12 08:13:20 51°33.408 2°53.973 -999 -999 -999 -999 -999
2008-09-12 08:13:30 51°33.407 2°53.975 -999 -999 -999 -999 -999
2008-09-12 08:13:40 51°33.407 2°53.978 -999 -999 -999 -999 -999
2008-09-12 08:13:50 51°33.408 2°53.982 -999 -999 -999 -999 -999
2008-09-12 08:14:00 51°33.41 2°53.987 -999 -999 -999 -999 -999
2008-09-12 08:14:10 51°33.412 2°53.994 -999 -999 -999 -999 -999
2008-09-12 08:14:20 51°33.414 2°54.003 -999 -999 -999 -999 -999
2008-09-12 08:14:30 51°33.416 2°54.014 -999 -999 -999 -999 -999
2008-09-12 08:14:40 51°33.416 2°54.026 -999 -999 -999 -999 -999
2008-09-12 08:14:50 51°33.414 2°54.039 -999 -999 -999 -999 -999
2008-09-12 08:15:00 51°33.411 2°54.053 -999 -999 -999 -999 -999
2008-09-12 08:15:10 51°33.406 2°54.066 -999 -999 -999 -999 -999
2008-09-12 08:15:20 51°33.4 2°54.08 -999 -999 -999 -999 -999
2008-09-12 08:15:30 51°33.393 2°54.094 -999 -999 -999 -999 -999
2008-09-12 08:15:40 51°33.387 2°54.109 -999 -999 -999 -999 -999
2008-09-12 08:15:50 51°33.38 2°54.123 -999 -999 -999 -999 -999
2008-09-12 08:16:00 51°33.373 2°54.138 -999 -999 -999 -999 -999
2008-09-12 08:16:10 51°33.367 2°54.153 -999 -999 -999 -999 -999
2008-09-12 08:16:20 51°33.36 2°54.168 -999 -999 -999 -999 -999
2008-09-12 08:16:30 51°33.354 2°54.183 -999 -999 -999 -999 -999
2008-09-12 08:16:40 51°33.347 2°54.199 -999 -999 -999 -999 -999
2008-09-12 08:16:50 51°33.34 2°54.213 -999 -999 -999 -999 -999
2008-09-12 08:17:00 51°33.334 2°54.226 -999 -999 -999 -999 -999
2008-09-12 08:17:10 51°33.328 2°54.239 -999 -999 -999 -999 -999
2008-09-12 08:17:20 51°33.322 2°54.251 -999 -999 -999 -999 -999
2008-09-12 08:17:30 51°33.317 2°54.263 -999 -999 -999 -999 -999
2008-09-12 08:17:40 51°33.312 2°54.275 -999 -999 -999 -999 -999
2008-09-12 08:17:50 51°33.307 2°54.285 -999 -999 -999 -999 -999
2008-09-12 08:18:00 51°33.302 2°54.296 -999 -999 -999 -999 -999
2008-09-12 08:18:10 51°33.298 2°54.306 -999 -999 -999 -999 -999
2008-09-12 08:18:20 51°33.293 2°54.316 -999 -999 -999 -999 -999
2008-09-12 08:18:30 51°33.288 2°54.326 -999 -999 -999 -999 -999
2008-09-12 08:18:40 51°33.283 2°54.335 -999 -999 -999 -999 -999
2008-09-12 08:18:50 51°33.277 2°54.344 -999 -999 -999 -999 -999
2008-09-12 08:19:00 51°33.272 2°54.352 -999 -999 -999 -999 -999
2008-09-12 08:19:10 51°33.267 2°54.36 -999 -999 -999 -999 -999
2008-09-12 08:19:20 51°33.261 2°54.368 -999 -999 -999 -999 -999
2008-09-12 08:19:30 51°33.256 2°54.376 -999 -999 -999 -999 -999
2008-09-12 08:19:40 51°33.251 2°54.383 -999 -999 -999 -999 -999
2008-09-12 08:19:50 51°33.245 2°54.39 -999 -999 -999 -999 -999
2008-09-12 08:20:00 51°33.24 2°54.397 -999 -999 -999 -999 -999
2008-09-12 08:20:10 51°33.234 2°54.404 -999 -999 -999 -999 -999
2008-09-12 08:20:20 51°33.229 2°54.41 -999 -999 -999 -999 -999
2008-09-12 08:20:30 51°33.223 2°54.416 -999 -999 -999 -999 -999
2008-09-12 08:20:40 51°33.217 2°54.422 -999 -999 -999 -999 -999
2008-09-12 08:20:50 51°33.212 2°54.428 -999 -999 -999 -999 -999
2008-09-12 08:21:00 51°33.206 2°54.433 -999 -999 -999 -999 -999
2008-09-12 08:21:10 51°33.2 2°54.438 -999 -999 -999 -999 -999
2008-09-12 08:21:20 51°33.195 2°54.443 -999 -999 -999 -999 -999
2008-09-12 08:21:30 51°33.189 2°54.449 -999 -999 -999 -999 -999
2008-09-12 08:21:40 51°33.184 2°54.454 -999 -999 -999 -999 -999
2008-09-12 08:21:50 51°33.179 2°54.46 -999 -999 -999 -999 -999
2008-09-12 08:22:00 51°33.174 2°54.465 -999 -999 -999 -999 -999
2008-09-12 08:22:10 51°33.169 2°54.471 -999 -999 -999 -999 -999
2008-09-12 08:22:20 51°33.164 2°54.476 -999 -999 -999 -999 -999
2008-09-12 08:22:30 51°33.16 2°54.482 -999 -999 -999 -999 -999
2008-09-12 08:22:40 51°33.156 2°54.488 -999 -999 -999 -999 -999
2008-09-12 08:22:50 51°33.152 2°54.493 -999 -999 -999 -999 -999
2008-09-12 08:23:00 51°33.148 2°54.498 -999 -999 -999 -999 -999
2008-09-12 08:23:10 51°33.144 2°54.503 -999 -999 -999 -999 -999
2008-09-12 08:23:20 51°33.14 2°54.508 -999 -999 -999 -999 -999
2008-09-12 08:23:30 51°33.136 2°54.513 -999 -999 -999 -999 -999
2008-09-12 08:23:40 51°33.133 2°54.518 -999 -999 -999 -999 -999
2008-09-12 08:23:50 51°33.129 2°54.522 -999 -999 -999 -999 -999
2008-09-12 08:24:00 51°33.125 2°54.526 -999 -999 -999 -999 -999
2008-09-12 08:24:10 51°33.122 2°54.53 -999 -999 -999 -999 -999
2008-09-12 08:24:20 51°33.118 2°54.534 -999 -999 -999 -999 -999
2008-09-12 08:24:30 51°33.115 2°54.538 -999 -999 -999 -999 -999
2008-09-12 08:24:40 51°33.111 2°54.541 -999 -999 -999 -999 -999
2008-09-12 08:24:50 51°33.108 2°54.544 -999 -999 -999 -999 -999
2008-09-12 08:25:00 51°33.105 2°54.548 -999 -999 -999 -999 -999
2008-09-12 08:25:10 51°33.101 2°54.55 -999 -999 -999 -999 -999
2008-09-12 08:25:20 51°33.098 2°54.553 -999 -999 -999 -999 -999
2008-09-12 08:25:30 51°33.095 2°54.555 -999 -999 -999 -999 -999
2008-09-12 08:25:40 51°33.092 2°54.558 -999 -999 -999 -999 -999
2008-09-12 08:25:50 51°33.089 2°54.56 -999 -999 -999 -999 -999
2008-09-12 08:26:00 51°33.086 2°54.562 -999 -999 -999 -999 -999
2008-09-12 08:26:10 51°33.083 2°54.564 -999 -999 -999 -999 -999
2008-09-12 08:26:20 51°33.08 2°54.566 -999 -999 -999 -999 -999
2008-09-12 08:26:30 51°33.077 2°54.568 -999 -999 -999 -999 -999
2008-09-12 08:26:40 51°33.074 2°54.57 -999 -999 -999 -999 -999
2008-09-12 08:26:50 51°33.072 2°54.571 -999 -999 -999 -999 -999
2008-09-12 08:27:00 51°33.069 2°54.573 -999 -999 -999 -999 -999
2008-09-12 08:27:10 51°33.067 2°54.575 -999 -999 -999 -999 -999
2008-09-12 08:27:20 51°33.064 2°54.577 -999 -999 -999 -999 -999
2008-09-12 08:27:30 51°33.062 2°54.579 -999 -999 -999 -999 -999
2008-09-12 08:27:40 51°33.06 2°54.581 -999 -999 -999 -999 -999
2008-09-12 08:27:50 51°33.057 2°54.583 -999 -999 -999 -999 -999
2008-09-12 08:28:00 51°33.055 2°54.585 -999 -999 -999 -999 -999
2008-09-12 08:28:10 51°33.052 2°54.586 -999 -999 -999 -999 -999
2008-09-12 08:28:20 51°33.05 2°54.588 -999 -999 -999 -999 -999
2008-09-12 08:28:30 51°33.048 2°54.589 -999 -999 -999 -999 -999
2008-09-12 08:28:40 51°33.046 2°54.591 -999 -999 -999 -999 -999
2008-09-12 08:28:50 51°33.044 2°54.593 -999 -999 -999 -999 -999
2008-09-12 08:29:00 51°33.042 2°54.594 -999 -999 -999 -999 -999
2008-09-12 08:29:10 51°33.039 2°54.596 -999 -999 -999 -999 -999
2008-09-12 08:29:20 51°33.038 2°54.597 -999 -999 -999 -999 -999
2008-09-12 08:29:30 51°33.036 2°54.599 -999 -999 -999 -999 -999
2008-09-12 08:29:40 51°33.034 2°54.599 -999 -999 -999 -999 -999
2008-09-12 08:29:50 51°33.032 2°54.601 -999 -999 -999 -999 -999
2008-09-12 08:30:00 51°33.03 2°54.603 -999 -999 -999 -999 -999
2008-09-12 08:30:10 51°33.027 2°54.605 -999 -999 -999 -999 -999
2008-09-12 08:30:20 51°33.026 2°54.607 -999 -999 -999 -999 -999
2008-09-12 08:30:30 51°33.024 2°54.609 -999 -999 -999 -999 -999
2008-09-12 08:30:40 51°33.022 2°54.611 -999 -999 -999 -999 -999
2008-09-12 08:30:50 51°33.02 2°54.613 -999 -999 -999 -999 -999
2008-09-12 08:31:00 51°33.019 2°54.615 -999 -999 -999 -999 -999
2008-09-12 08:31:10 51°33.017 2°54.618 -999 -999 -999 -999 -999
2008-09-12 08:31:20 51°33.015 2°54.621 -999 -999 -999 -999 -999
2008-09-12 08:31:30 51°33.014 2°54.624 -999 -999 -999 -999 -999
2008-09-12 08:31:40 51°33.012 2°54.626 -999 -999 -999 -999 -999
2008-09-12 08:31:50 51°33.011 2°54.629 -999 -999 -999 -999 -999
2008-09-12 08:32:00 51°33.01 2°54.631 -999 -999 -999 -999 -999
2008-09-12 08:32:10 51°33.009 2°54.635 -999 -999 -999 -999 -999
2008-09-12 08:32:20 51°33.007 2°54.638 -999 -999 -999 -999 -999
2008-09-12 08:32:30 51°33.006 2°54.64 -999 -999 -999 -999 -999
2008-09-12 08:32:40 51°33.005 2°54.643 -999 -999 -999 -999 -999
2008-09-12 08:32:50 51°33.004 2°54.646 -999 -999 -999 -999 -999
2008-09-12 08:33:00 51°33.002 2°54.649 -999 -999 -999 -999 -999
2008-09-12 08:33:10 51°33.001 2°54.652 -999 -999 -999 -999 -999
2008-09-12 08:33:20 51°33 2°54.654 -999 -999 -999 -999 -999
2008-09-12 08:33:30 51°32.999 2°54.657 -999 -999 -999 -999 -999
2008-09-12 08:33:40 51°32.998 2°54.66 -999 -999 -999 -999 -999
2008-09-12 08:33:50 51°32.997 2°54.663 -999 -999 -999 -999 -999
2008-09-12 08:34:00 51°32.995 2°54.666 -999 -999 -999 -999 -999
2008-09-12 08:34:10 51°32.992 2°54.67 -999 -999 -999 -999 -999
2008-09-12 08:34:20 51°32.987 2°54.675 -999 -999 -999 -999 -999
2008-09-12 08:34:30 51°32.983 2°54.68 -999 -999 -999 -999 -999
2008-09-12 08:34:40 51°32.977 2°54.686 -999 -999 -999 -999 -999
2008-09-12 08:34:50 51°32.972 2°54.695 -999 -999 -999 -999 -999
2008-09-12 08:35:00 51°32.967 2°54.705 -999 -999 -999 -999 -999
2008-09-12 08:35:10 51°32.962 2°54.716 -999 -999 -999 -999 -999
2008-09-12 08:35:20 51°32.959 2°54.729 -999 -999 -999 -999 -999
2008-09-12 08:35:30 51°32.957 2°54.743 -999 -999 -999 -999 -999
2008-09-12 08:35:40 51°32.957 2°54.756 -999 -999 -999 -999 -999
2008-09-12 08:35:50 51°32.958 2°54.769 -999 -999 -999 -999 -999
2008-09-12 08:36:00 51°32.961 2°54.781 -999 -999 -999 -999 -999
2008-09-12 08:36:10 51°32.966 2°54.792 -999 -999 -999 -999 -999
2008-09-12 08:36:20 51°32.971 2°54.8 -999 -999 -999 -999 -999
2008-09-12 08:36:30 51°32.977 2°54.807 -999 -999 -999 -999 -999
2008-09-12 08:36:40 51°32.984 2°54.811 -999 -999 -999 -999 -999
2008-09-12 08:36:50 51°32.991 2°54.814 -999 -999 -999 -999 -999
2008-09-12 08:37:00 51°32.997 2°54.814 -999 -999 -999 -999 -999
2008-09-12 08:37:10 51°33.005 2°54.812 -999 -999 -999 -999 -999
2008-09-12 08:37:20 51°33.013 2°54.81 -999 -999 -999 -999 -999
2008-09-12 08:37:30 51°33.021 2°54.806 -999 -999 -999 -999 -999
2008-09-12 08:37:40 51°33.03 2°54.803 -999 -999 -999 -999 -999
2008-09-12 08:37:50 51°33.04 2°54.799 -999 -999 -999 -999 -999
2008-09-12 08:38:00 51°33.05 2°54.797 -999 -999 -999 -999 -999
2008-09-12 08:38:10 51°33.06 2°54.796 -999 -999 -999 -999 -999
2008-09-12 08:38:20 51°33.071 2°54.796 -999 -999 -999 -999 -999
2008-09-12 08:38:30 51°33.082 2°54.795 -999 -999 -999 -999 -999
2008-09-12 08:38:40 51°33.093 2°54.795 -999 -999 -999 -999 -999
2008-09-12 08:38:50 51°33.105 2°54.793 -999 -999 -999 -999 -999
2008-09-12 08:39:00 51°33.116 2°54.791 -999 -999 -999 -999 -999
2008-09-12 08:39:10 51°33.127 2°54.789 -999 -999 -999 -999 -999
2008-09-12 08:39:20 51°33.138 2°54.787 -999 -999 -999 -999 -999
2008-09-12 08:39:30 51°33.146 2°54.784 -999 -999 -999 -999 -999
2008-09-12 08:39:40 51°33.154 2°54.782 -999 -999 -999 -999 -999
2008-09-12 08:39:50 51°33.161 2°54.779 -999 -999 -999 -999 -999
2008-09-12 08:40:00 51°33.168 2°54.776 -999 -999 -999 -999 -999
2008-09-12 08:40:10 51°33.173 2°54.773 -999 -999 -999 -999 -999
2008-09-12 08:40:20 51°33.178 2°54.771 -999 -999 -999 -999 -999
2008-09-12 08:40:30 51°33.182 2°54.769 -999 -999 -999 -999 -999
2008-09-12 08:40:40 51°33.186 2°54.768 -999 -999 -999 -999 -999
2008-09-12 08:40:50 51°33.19 2°54.766 -999 -999 -999 -999 -999
2008-09-12 08:41:00 51°33.194 2°54.765 -999 -999 -999 -999 -999
2008-09-12 08:41:10 51°33.197 2°54.764 -999 -999 -999 -999 -999
2008-09-12 08:41:20 51°33.2 2°54.763 -999 -999 -999 -999 -999
2008-09-12 08:41:30 51°33.203 2°54.762 -999 -999 -999 -999 -999
2008-09-12 08:41:40 51°33.205 2°54.762 -999 -999 -999 -999 -999
2008-09-12 08:41:50 51°33.207 2°54.761 -999 -999 -999 -999 -999
2008-09-12 08:42:00 51°33.21 2°54.761 -999 -999 -999 -999 -999
2008-09-12 08:42:10 51°33.212 2°54.761 -999 -999 -999 -999 -999
2008-09-12 08:42:20 51°33.214 2°54.761 -999 -999 -999 -999 -999
2008-09-12 08:42:30 51°33.216 2°54.761 -999 -999 -999 -999 -999
2008-09-12 08:42:40 51°33.217 2°54.762 -999 -999 -999 -999 -999
2008-09-12 08:42:50 51°33.218 2°54.762 -999 -999 -999 -999 -999
2008-09-12 08:43:00 51°33.22 2°54.762 -999 -999 -999 -999 -999
2008-09-12 08:43:10 51°33.221 2°54.762 -999 -999 -999 -999 -999
2008-09-12 08:43:20 51°33.223 2°54.763 -999 -999 -999 -999 -999
2008-09-12 08:43:30 51°33.224 2°54.764 -999 -999 -999 -999 -999
2008-09-12 08:43:40 51°33.225 2°54.764 -999 -999 -999 -999 -999
2008-09-12 08:43:50 51°33.225 2°54.765 -999 -999 -999 -999 -999
2008-09-12 08:44:00 51°33.226 2°54.767 -999 -999 -999 -999 -999
2008-09-12 08:44:10 51°33.227 2°54.768 -999 -999 -999 -999 -999
2008-09-12 08:44:20 51°33.227 2°54.77 -999 -999 -999 -999 -999
2008-09-12 08:44:30 51°33.228 2°54.772 -999 -999 -999 -999 -999
2008-09-12 08:44:40 51°33.228 2°54.773 -999 -999 -999 -999 -999
2008-09-12 08:44:50 51°33.228 2°54.775 -999 -999 -999 -999 -999
2008-09-12 08:45:00 51°33.229 2°54.778 -999 -999 -999 -999 -999
2008-09-12 08:45:10 51°33.229 2°54.78 -999 -999 -999 -999 -999
2008-09-12 08:45:20 51°33.229 2°54.783 -999 -999 -999 -999 -999
2008-09-12 08:45:30 51°33.229 2°54.786 -999 -999 -999 -999 -999
2008-09-12 08:45:40 51°33.229 2°54.789 -999 -999 -999 -999 -999
2008-09-12 08:45:50 51°33.229 2°54.792 -999 -999 -999 -999 -999
2008-09-12 08:46:00 51°33.229 2°54.795 -999 -999 -999 -999 -999
2008-09-12 08:46:10 51°33.228 2°54.798 -999 -999 -999 -999 -999
2008-09-12 08:46:20 51°33.228 2°54.801 -999 -999 -999 -999 -999
2008-09-12 08:46:30 51°33.227 2°54.804 -999 -999 -999 -999 -999
2008-09-12 08:46:40 51°33.227 2°54.807 -999 -999 -999 -999 -999
2008-09-12 08:46:50 51°33.226 2°54.81 -999 -999 -999 -999 -999
2008-09-12 08:47:00 51°33.226 2°54.814 -999 -999 -999 -999 -999
2008-09-12 08:47:10 51°33.226 2°54.817 -999 -999 -999 -999 -999
2008-09-12 08:47:20 51°33.225 2°54.82 -999 -999 -999 -999 -999
2008-09-12 08:47:30 51°33.224 2°54.824 -999 -999 -999 -999 -999
2008-09-12 08:47:40 51°33.224 2°54.827 -999 -999 -999 -999 -999
2008-09-12 08:47:50 51°33.223 2°54.83 -999 -999 -999 -999 -999
2008-09-12 08:48:00 51°33.223 2°54.833 -999 -999 -999 -999 -999
2008-09-12 08:48:10 51°33.223 2°54.837 -999 -999 -999 -999 -999
2008-09-12 08:48:20 51°33.222 2°54.84 -999 -999 -999 -999 -999
2008-09-12 08:48:30 51°33.222 2°54.844 -999 -999 -999 -999 -999
2008-09-12 08:48:40 51°33.222 2°54.848 -999 -999 -999 -999 -999
2008-09-12 08:48:50 51°33.221 2°54.851 -999 -999 -999 -999 -999
2008-09-12 08:49:00 51°33.22 2°54.854 -999 -999 -999 -999 -999
2008-09-12 08:49:10 51°33.219 2°54.857 -999 -999 -999 -999 -999
2008-09-12 08:49:20 51°33.218 2°54.861 -999 -999 -999 -999 -999
2008-09-12 08:49:30 51°33.217 2°54.865 -999 -999 -999 -999 -999
2008-09-12 08:49:40 51°33.217 2°54.869 -999 -999 -999 -999 -999
2008-09-12 08:49:50 51°33.216 2°54.873 -999 -999 -999 -999 -999
2008-09-12 08:50:00 51°33.216 2°54.876 -999 -999 -999 -999 -999
2008-09-12 08:50:10 51°33.216 2°54.88 -999 -999 -999 -999 -999
2008-09-12 08:50:20 51°33.215 2°54.884 -999 -999 -999 -999 -999
2008-09-12 08:50:30 51°33.214 2°54.888 -999 -999 -999 -999 -999
2008-09-12 08:50:40 51°33.214 2°54.892 -999 -999 -999 -999 -999
2008-09-12 08:50:50 51°33.213 2°54.896 -999 -999 -999 -999 -999
2008-09-12 08:51:00 51°33.213 2°54.899 -999 -999 -999 -999 -999
2008-09-12 08:51:10 51°33.212 2°54.903 -999 -999 -999 -999 -999
2008-09-12 08:51:20 51°33.211 2°54.907 -999 -999 -999 -999 -999
2008-09-12 08:51:30 51°33.211 2°54.911 -999 -999 -999 -999 -999
2008-09-12 08:51:40 51°33.21 2°54.914 -999 -999 -999 -999 -999
2008-09-12 08:51:50 51°33.21 2°54.918 -999 -999 -999 -999 -999
2008-09-12 08:52:00 51°33.209 2°54.922 -999 -999 -999 -999 -999
2008-09-12 08:52:10 51°33.208 2°54.925 -999 -999 -999 -999 -999
2008-09-12 08:52:20 51°33.208 2°54.928 -999 -999 -999 -999 -999
2008-09-12 08:52:30 51°33.207 2°54.932 -999 -999 -999 -999 -999
2008-09-12 08:52:40 51°33.207 2°54.936 -999 -999 -999 -999 -999
2008-09-12 08:52:50 51°33.206 2°54.939 -999 -999 -999 -999 -999
2008-09-12 08:53:00 51°33.206 2°54.943 -999 -999 -999 -999 -999
2008-09-12 08:53:10 51°33.205 2°54.947 -999 -999 -999 -999 -999
2008-09-12 08:53:20 51°33.205 2°54.951 -999 -999 -999 -999 -999
2008-09-12 08:53:30 51°33.205 2°54.954 -999 -999 -999 -999 -999
2008-09-12 08:53:40 51°33.205 2°54.958 -999 -999 -999 -999 -999
2008-09-12 08:53:50 51°33.205 2°54.961 -999 -999 -999 -999 -999
2008-09-12 08:54:00 51°33.205 2°54.965 -999 -999 -999 -999 -999
2008-09-12 08:54:10 51°33.205 2°54.968 -999 -999 -999 -999 -999
2008-09-12 08:54:20 51°33.205 2°54.972 -999 -999 -999 -999 -999
2008-09-12 08:54:30 51°33.205 2°54.975 -999 -999 -999 -999 -999
2008-09-12 08:54:40 51°33.205 2°54.979 -999 -999 -999 -999 -999
2008-09-12 08:54:50 51°33.206 2°54.983 -999 -999 -999 -999 -999
2008-09-12 08:55:00 51°33.206 2°54.986 -999 -999 -999 -999 -999
2008-09-12 08:55:10 51°33.205 2°54.99 -999 -999 -999 -999 -999
2008-09-12 08:55:20 51°33.205 2°54.994 -999 -999 -999 -999 -999
2008-09-12 08:55:30 51°33.205 2°54.997 -999 -999 -999 -999 -999
2008-09-12 08:55:40 51°33.205 2°55 -999 -999 -999 -999 -999
2008-09-12 08:55:50 51°33.205 2°55.004 -999 -999 -999 -999 -999
2008-09-12 08:56:00 51°33.205 2°55.007 -999 -999 -999 -999 -999
2008-09-12 08:56:10 51°33.205 2°55.011 -999 -999 -999 -999 -999
2008-09-12 08:56:20 51°33.205 2°55.014 -999 -999 -999 -999 -999
2008-09-12 08:56:30 51°33.207 2°55.018 -999 -999 -999 -999 -999
2008-09-12 08:56:40 51°33.209 2°55.02 -999 -999 -999 -999 -999
2008-09-12 08:56:50 51°33.211 2°55.022 -999 -999 -999 -999 -999
2008-09-12 08:57:00 51°33.213 2°55.023 -999 -999 -999 -999 -999
2008-09-12 08:57:10 51°33.216 2°55.024 -999 -999 -999 -999 -999
2008-09-12 08:57:20 51°33.219 2°55.025 -999 -999 -999 -999 -999
2008-09-12 08:57:30 51°33.222 2°55.025 -999 -999 -999 -999 -999
2008-09-12 08:57:40 51°33.224 2°55.024 -999 -999 -999 -999 -999
2008-09-12 08:57:50 51°33.227 2°55.022 -999 -999 -999 -999 -999
2008-09-12 08:58:00 51°33.229 2°55.021 -999 -999 -999 -999 -999
2008-09-12 08:58:10 51°33.232 2°55.019 -999 -999 -999 -999 -999
2008-09-12 08:58:20 51°33.235 2°55.016 -999 -999 -999 -999 -999
2008-09-12 08:58:30 51°33.238 2°55.013 -999 -999 -999 -999 -999
2008-09-12 08:58:40 51°33.24 2°55.01 -999 -999 -999 -999 -999
2008-09-12 08:58:50 51°33.243 2°55.006 -999 -999 -999 -999 -999
2008-09-12 08:59:00 51°33.247 2°55.002 -999 -999 -999 -999 -999
2008-09-12 08:59:10 51°33.25 2°54.997 -999 -999 -999 -999 -999
2008-09-12 08:59:20 51°33.253 2°54.993 -999 -999 -999 -999 -999
2008-09-12 08:59:30 51°33.256 2°54.988 -999 -999 -999 -999 -999
2008-09-12 08:59:40 51°33.26 2°54.982 -999 -999 -999 -999 -999
2008-09-12 08:59:50 51°33.263 2°54.977 -999 -999 -999 -999 -999
2008-09-12 09:00:00 51°33.267 2°54.971 -999 -999 -999 -999 -999
2008-09-12 09:00:10 51°33.269 2°54.965 -999 -999 -999 -999 -999
2008-09-12 09:00:20 51°33.273 2°54.959 -999 -999 -999 -999 -999
2008-09-12 09:00:30 51°33.276 2°54.953 -999 -999 -999 -999 -999
2008-09-12 09:00:40 51°33.279 2°54.947 -999 -999 -999 -999 -999
2008-09-12 09:00:50 51°33.283 2°54.94 -999 -999 -999 -999 -999
2008-09-12 09:01:00 51°33.286 2°54.934 -999 -999 -999 -999 -999
2008-09-12 09:01:10 51°33.289 2°54.927 -999 -999 -999 -999 -999
2008-09-12 09:01:20 51°33.292 2°54.921 -999 -999 -999 -999 -999
2008-09-12 09:01:30 51°33.295 2°54.914 -999 -999 -999 -999 -999
2008-09-12 09:01:40 51°33.299 2°54.907 -999 -999 -999 -999 -999
2008-09-12 09:01:50 51°33.302 2°54.9 -999 -999 -999 -999 -999
2008-09-12 09:02:00 51°33.306 2°54.893 -999 -999 -999 -999 -999
2008-09-12 09:02:10 51°33.309 2°54.886 -999 -999 -999 -999 -999
2008-09-12 09:02:20 51°33.313 2°54.879 -999 -999 -999 -999 -999
2008-09-12 09:02:30 51°33.317 2°54.873 -999 -999 -999 -999 -999
2008-09-12 09:02:40 51°33.321 2°54.866 -999 -999 -999 -999 -999
2008-09-12 09:02:50 51°33.326 2°54.861 -999 -999 -999 -999 -999
2008-09-12 09:03:00 51°33.331 2°54.856 -999 -999 -999 -999 -999
2008-09-12 09:03:10 51°33.336 2°54.852 -999 -999 -999 -999 -999
2008-09-12 09:03:20 51°33.342 2°54.848 -999 -999 -999 -999 -999
2008-09-12 09:03:30 51°33.347 2°54.845 -999 -999 -999 -999 -999
2008-09-12 09:03:40 51°33.353 2°54.842 -999 -999 -999 -999 -999
2008-09-12 09:03:50 51°33.358 2°54.84 -999 -999 -999 -999 -999
2008-09-12 09:04:00 51°33.364 2°54.838 -999 -999 -999 -999 -999
2008-09-12 09:04:10 51°33.369 2°54.836 -999 -999 -999 -999 -999
2008-09-12 09:04:20 51°33.374 2°54.834 -999 -999 -999 -999 -999
2008-09-12 09:04:30 51°33.38 2°54.832 -999 -999 -999 -999 -999
2008-09-12 09:04:40 51°33.384 2°54.831 -999 -999 -999 -999 -999
2008-09-12 09:04:50 51°33.389 2°54.83 -999 -999 -999 -999 -999
2008-09-12 09:05:00 51°33.394 2°54.828 -999 -999 -999 -999 -999
2008-09-12 09:05:10 51°33.398 2°54.827 -999 -999 -999 -999 -999
2008-09-12 09:05:20 51°33.403 2°54.826 -999 -999 -999 -999 -999
2008-09-12 09:05:30 51°33.408 2°54.825 -999 -999 -999 -999 -999
2008-09-12 09:05:40 51°33.412 2°54.823 -999 -999 -999 -999 -999
2008-09-12 09:05:50 51°33.417 2°54.822 -999 -999 -999 -999 -999
2008-09-12 09:06:00 51°33.421 2°54.821 -999 -999 -999 -999 -999
2008-09-12 09:06:10 51°33.425 2°54.819 -999 -999 -999 -999 -999
2008-09-12 09:06:20 51°33.429 2°54.818 -999 -999 -999 -999 -999
2008-09-12 09:06:30 51°33.434 2°54.816 -999 -999 -999 -999 -999
2008-09-12 09:06:40 51°33.438 2°54.815 -999 -999 -999 -999 -999
2008-09-12 09:06:50 51°33.442 2°54.814 -999 -999 -999 -999 -999
2008-09-12 09:07:00 51°33.446 2°54.812 -999 -999 -999 -999 -999
2008-09-12 09:07:10 51°33.45 2°54.811 -999 -999 -999 -999 -999
2008-09-12 09:07:20 51°33.454 2°54.81 -999 -999 -999 -999 -999
2008-09-12 09:07:30 51°33.459 2°54.808 -999 -999 -999 -999 -999
2008-09-12 09:07:40 51°33.462 2°54.807 -999 -999 -999 -999 -999
2008-09-12 09:07:50 51°33.467 2°54.805 -999 -999 -999 -999 -999
2008-09-12 09:08:00 51°33.471 2°54.804 -999 -999 -999 -999 -999
2008-09-12 09:08:10 51°33.475 2°54.802 -999 -999 -999 -999 -999
2008-09-12 09:08:20 51°33.48 2°54.8 -999 -999 -999 -999 -999
2008-09-12 09:08:30 51°33.483 2°54.799 -999 -999 -999 -999 -999
2008-09-12 09:08:40 51°33.487 2°54.798 -999 -999 -999 -999 -999
2008-09-12 09:08:50 51°33.491 2°54.798 -999 -999 -999 -999 -999
2008-09-12 09:09:00 51°33.496 2°54.797 -999 -999 -999 -999 -999
2008-09-12 09:09:10 51°33.5 2°54.797 -999 -999 -999 -999 -999
2008-09-12 09:09:20 51°33.505 2°54.798 -999 -999 -999 -999 -999
2008-09-12 09:09:30 51°33.509 2°54.798 -999 -999 -999 -999 -999
2008-09-12 09:09:40 51°33.513 2°54.8 -999 -999 -999 -999 -999
2008-09-12 09:09:50 51°33.518 2°54.802 -999 -999 -999 -999 -999
2008-09-12 09:10:00 51°33.523 2°54.805 -999 -999 -999 -999 -999
2008-09-12 09:10:10 51°33.528 2°54.808 -999 -999 -999 -999 -999
2008-09-12 09:10:20 51°33.532 2°54.812 -999 -999 -999 -999 -999
2008-09-12 09:10:30 51°33.536 2°54.816 -999 -999 -999 -999 -999
2008-09-12 09:10:40 51°33.541 2°54.82 -999 -999 -999 -999 -999
2008-09-12 09:10:50 51°33.546 2°54.824 -999 -999 -999 -999 -999
2008-09-12 09:11:00 51°33.551 2°54.828 -999 -999 -999 -999 -999
2008-09-12 09:11:10 51°33.556 2°54.832 -999 -999 -999 -999 -999
2008-09-12 09:11:20 51°33.56 2°54.836 -999 -999 -999 -999 -999
2008-09-12 09:11:30 51°33.565 2°54.839 -999 -999 -999 -999 -999
2008-09-12 09:11:40 51°33.571 2°54.843 -999 -999 -999 -999 -999
2008-09-12 09:11:50 51°33.576 2°54.846 -999 -999 -999 -999 -999
2008-09-12 09:12:00 51°33.58 2°54.849 -999 -999 -999 -999 -999
2008-09-12 09:12:10 51°33.585 2°54.851 -999 -999 -999 -999 -999
2008-09-12 09:12:20 51°33.59 2°54.854 -999 -999 -999 -999 -999
2008-09-12 09:12:30 51°33.594 2°54.857 -999 -999 -999 -999 -999
2008-09-12 09:12:40 51°33.598 2°54.859 -999 -999 -999 -999 -999
2008-09-12 09:12:50 51°33.602 2°54.862 -999 -999 -999 -999 -999
2008-09-12 09:13:00 51°33.605 2°54.865 -999 -999 -999 -999 -999
2008-09-12 09:13:10 51°33.609 2°54.868 -999 -999 -999 -999 -999
2008-09-12 09:13:20 51°33.611 2°54.87 -999 -999 -999 -999 -999
2008-09-12 09:13:30 51°33.614 2°54.873 -999 -999 -999 -999 -999
2008-09-12 09:13:40 51°33.617 2°54.876 -999 -999 -999 -999 -999
2008-09-12 09:13:50 51°33.619 2°54.878 -999 -999 -999 -999 -999
2008-09-12 09:14:00 51°33.622 2°54.881 -999 -999 -999 -999 -999
2008-09-12 09:14:10 51°33.624 2°54.884 -999 -999 -999 -999 -999
2008-09-12 09:14:20 51°33.626 2°54.887 -999 -999 -999 -999 -999
2008-09-12 09:14:30 51°33.628 2°54.889 -999 -999 -999 -999 -999
2008-09-12 09:14:40 51°33.63 2°54.893 -999 -999 -999 -999 -999
2008-09-12 09:14:50 51°33.632 2°54.896 -999 -999 -999 -999 -999
2008-09-12 09:15:00 51°33.633 2°54.899 -999 -999 -999 -999 -999
2008-09-12 09:15:10 51°33.635 2°54.902 -999 -999 -999 -999 -999
2008-09-12 09:15:20 51°33.636 2°54.905 -999 -999 -999 -999 -999
2008-09-12 09:15:30 51°33.638 2°54.909 -999 -999 -999 -999 -999
2008-09-12 09:15:40 51°33.639 2°54.912 -999 -999 -999 -999 -999
2008-09-12 09:15:50 51°33.641 2°54.916 -999 -999 -999 -999 -999
2008-09-12 09:16:00 51°33.642 2°54.92 -999 -999 -999 -999 -999
2008-09-12 09:16:10 51°33.643 2°54.923 -999 -999 -999 -999 -999
2008-09-12 09:16:20 51°33.644 2°54.927 -999 -999 -999 -999 -999
2008-09-12 09:16:30 51°33.645 2°54.93 -999 -999 -999 -999 -999
2008-09-12 09:16:40 51°33.647 2°54.935 -999 -999 -999 -999 -999
2008-09-12 09:16:50 51°33.648 2°54.938 -999 -999 -999 -999 -999
2008-09-12 09:17:00 51°33.649 2°54.942 -999 -999 -999 -999 -999
2008-09-12 09:17:10 51°33.65 2°54.946 -999 -999 -999 -999 -999
2008-09-12 09:17:20 51°33.651 2°54.95 -999 -999 -999 -999 -999
2008-09-12 09:17:30 51°33.651 2°54.954 -999 -999 -999 -999 -999
2008-09-12 09:17:40 51°33.653 2°54.959 -999 -999 -999 -999 -999
2008-09-12 09:17:50 51°33.654 2°54.962 -999 -999 -999 -999 -999
2008-09-12 09:18:00 51°33.658 2°54.964 -999 -999 -999 -999 -999
2008-09-12 09:18:10 51°33.663 2°54.963 -999 -999 -999 -999 -999
2008-09-12 09:18:20 51°33.669 2°54.958 -999 -999 -999 -999 -999
2008-09-12 09:18:30 51°33.675 2°54.949 -999 -999 -999 -999 -999
2008-09-12 09:18:40 51°33.679 2°54.936 -999 -999 -999 -999 -999
2008-09-12 09:18:50 51°33.68 2°54.921 -999 -999 -999 -999 -999
2008-09-12 09:19:00 51°33.678 2°54.905 -999 -999 -999 -999 -999
2008-09-12 09:19:10 51°33.67 2°54.886 -999 -999 -999 -999 -999
2008-09-12 09:19:20 51°33.661 2°54.871 -999 -999 -999 -999 -999
2008-09-12 09:19:30 51°33.648 2°54.851 -999 -999 -999 -999 -999
2008-09-12 09:19:40 51°33.634 2°54.828 -999 -999 -999 -999 -999
2008-09-12 09:19:50 51°33.616 2°54.798 -999 -999 -999 -999 -999
2008-09-12 09:20:00 51°33.599 2°54.768 -999 -999 -999 -999 -999
2008-09-12 09:20:10 51°33.582 2°54.735 -999 -999 -999 -999 -999
2008-09-12 09:20:20 51°33.566 2°54.7 -999 -999 -999 -999 -999
2008-09-12 09:20:30 51°33.55 2°54.662 -999 -999 -999 -999 -999
2008-09-12 09:20:40 51°33.533 2°54.622 -999 -999 -999 -999 -999
2008-09-12 09:20:50 51°33.516 2°54.581 -999 -999 -999 -999 -999
2008-09-12 09:21:00 51°33.5 2°54.538 -999 -999 -999 -999 -999
2008-09-12 09:21:10 51°33.483 2°54.493 -999 -999 -999 -999 -999
2008-09-12 09:21:20 51°33.467 2°54.449 -999 -999 -999 -999 -999
2008-09-12 09:21:30 51°33.45 2°54.404 -999 -999 -999 -999 -999
2008-09-12 09:21:40 51°33.436 2°54.364 -999 -999 -999 -999 -999
2008-09-12 09:21:50 51°33.419 2°54.314 -999 -999 -999 -999 -999
2008-09-12 09:22:00 51°33.403 2°54.269 -999 -999 -999 -999 -999
2008-09-12 09:22:10 51°33.386 2°54.225 -999 -999 -999 -999 -999
2008-09-12 09:22:20 51°33.369 2°54.181 -999 -999 -999 -999 -999
2008-09-12 09:22:30 51°33.354 2°54.141 -999 -999 -999 -999 -999
2008-09-12 09:22:40 51°33.335 2°54.093 -999 -999 -999 -999 -999
2008-09-12 09:22:50 51°33.319 2°54.048 -999 -999 -999 -999 -999
2008-09-12 09:23:00 51°33.302 2°54.004 -999 -999 -999 -999 -999
2008-09-12 09:23:10 51°33.286 2°53.959 -999 -999 -999 -999 -999
2008-09-12 09:23:20 51°33.27 2°53.915 -999 -999 -999 -999 -999
2008-09-12 09:23:30 51°33.254 2°53.87 -999 -999 -999 -999 -999
2008-09-12 09:23:40 51°33.237 2°53.825 -999 -999 -999 -999 -999
2008-09-12 09:23:50 51°33.221 2°53.78 -999 -999 -999 -999 -999
2008-09-12 09:24:00 51°33.205 2°53.736 -999 -999 -999 -999 -999
2008-09-12 09:24:10 51°33.191 2°53.695 -999 -999 -999 -999 -999
2008-09-12 09:24:20 51°33.175 2°53.645 -999 -999 -999 -999 -999
2008-09-12 09:24:30 51°33.159 2°53.6 -999 -999 -999 -999 -999
2008-09-12 09:24:40 51°33.143 2°53.555 -999 -999 -999 -999 -999
2008-09-12 09:24:50 51°33.128 2°53.51 -999 -999 -999 -999 -999
2008-09-12 09:25:00 51°33.112 2°53.464 -999 -999 -999 -999 -999
2008-09-12 09:25:10 51°33.097 2°53.419 -999 -999 -999 -999 -999
2008-09-12 09:25:20 51°33.084 2°53.377 -999 -999 -999 -999 -999
2008-09-12 09:25:30 51°33.068 2°53.327 -999 -999 -999 -999 -999
2008-09-12 09:25:40 51°33.053 2°53.281 -999 -999 -999 -999 -999
2008-09-12 09:25:50 51°33.039 2°53.235 -999 -999 -999 -999 -999
2008-09-12 09:26:00 51°33.023 2°53.189 -999 -999 -999 -999 -999
2008-09-12 09:26:10 51°33.009 2°53.143 -999 -999 -999 -999 -999
2008-09-12 09:26:20 51°32.994 2°53.097 -999 -999 -999 -999 -999
2008-09-12 09:26:30 51°32.978 2°53.052 -999 -999 -999 -999 -999
2008-09-12 09:26:40 51°32.965 2°53.01 -999 -999 -999 -999 -999
2008-09-12 09:26:50 51°32.95 2°52.965 -999 -999 -999 -999 -999
2008-09-12 09:27:00 51°32.933 2°52.914 -999 -999 -999 -999 -999
2008-09-12 09:27:10 51°32.92 2°52.874 -999 -999 -999 -999 -999
2008-09-12 09:27:20 51°32.903 2°52.823 -999 -999 -999 -999 -999
2008-09-12 09:27:30 51°32.888 2°52.778 -999 -999 -999 -999 -999
2008-09-12 09:27:40 51°32.874 2°52.737 -999 -999 -999 -999 -999
2008-09-12 09:27:50 51°32.858 2°52.687 -999 -999 -999 -999 -999
2008-09-12 09:28:00 51°32.843 2°52.642 -999 -999 -999 -999 -999
2008-09-12 09:28:10 51°32.827 2°52.596 -999 -999 -999 -999 -999
2008-09-12 09:28:20 51°32.812 2°52.551 -999 -999 -999 -999 -999
2008-09-12 09:28:30 51°32.799 2°52.51 -999 -999 -999 -999 -999
2008-09-12 09:28:40 51°32.782 2°52.461 -999 -999 -999 -999 -999
2008-09-12 09:28:50 51°32.766 2°52.415 -999 -999 -999 -999 -999
2008-09-12 09:29:00 51°32.751 2°52.37 -999 -999 -999 -999 -999
2008-09-12 09:29:10 51°32.736 2°52.325 -999 -999 -999 -999 -999
2008-09-12 09:29:20 51°32.722 2°52.284 -999 -999 -999 -999 -999
2008-09-12 09:29:30 51°32.705 2°52.234 -999 -999 -999 -999 -999
2008-09-12 09:29:40 51°32.689 2°52.19 -999 -999 -999 -999 -999
2008-09-12 09:29:50 51°32.673 2°52.146 -999 -999 -999 -999 -999
2008-09-12 09:30:00 51°32.658 2°52.106 -999 -999 -999 -999 -999
2008-09-12 09:30:10 51°32.64 2°52.058 -999 -999 -999 -999 -999
2008-09-12 09:30:20 51°32.623 2°52.014 -999 -999 -999 -999 -999
2008-09-12 09:30:30 51°32.606 2°51.97 -999 -999 -999 -999 -999
2008-09-12 09:30:40 51°32.59 2°51.926 -999 -999 -999 -999 -999
2008-09-12 09:30:50 51°32.573 2°51.882 -999 -999 -999 -999 -999
2008-09-12 09:31:00 51°32.557 2°51.838 -999 -999 -999 -999 -999
2008-09-12 09:31:10 51°32.541 2°51.794 -999 -999 -999 -999 -999
2008-09-12 09:31:20 51°32.525 2°51.749 -999 -999 -999 -999 -999
2008-09-12 09:31:30 51°32.512 2°51.708 -999 -999 -999 -999 -999
2008-09-12 09:31:40 51°32.495 2°51.659 -999 -999 -999 -999 -999
2008-09-12 09:31:50 51°32.479 2°51.614 -999 -999 -999 -999 -999
2008-09-12 09:32:00 51°32.464 2°51.569 -999 -999 -999 -999 -999
2008-09-12 09:32:10 51°32.449 2°51.523 -999 -999 -999 -999 -999
2008-09-12 09:32:20 51°32.434 2°51.477 -999 -999 -999 -999 -999
2008-09-12 09:32:30 51°32.42 2°51.432 -999 -999 -999 -999 -999
2008-09-12 09:32:40 51°32.405 2°51.391 -999 -999 -999 -999 -999
2008-09-12 09:32:50 51°32.388 2°51.343 -999 -999 -999 -999 -999
2008-09-12 09:33:00 51°32.371 2°51.299 -999 -999 -999 -999 -999
2008-09-12 09:33:10 51°32.355 2°51.255 -999 -999 -999 -999 -999
2008-09-12 09:33:20 51°32.339 2°51.211 -999 -999 -999 -999 -999
2008-09-12 09:33:30 51°32.324 2°51.171 -999 -999 -999 -999 -999
2008-09-12 09:33:40 51°32.306 2°51.123 -999 -999 -999 -999 -999
2008-09-12 09:33:50 51°32.29 2°51.078 -999 -999 -999 -999 -999
2008-09-12 09:34:00 51°32.274 2°51.034 -999 -999 -999 -999 -999
2008-09-12 09:34:10 51°32.258 2°50.988 -999 -999 -999 -999 -999
2008-09-12 09:34:20 51°32.243 2°50.943 -999 -999 -999 -999 -999
2008-09-12 09:34:30 51°32.229 2°50.897 -999 -999 -999 -999 -999
2008-09-12 09:34:40 51°32.216 2°50.856 -999 -999 -999 -999 -999
2008-09-12 09:34:50 51°32.201 2°50.81 -999 -999 -999 -999 -999
2008-09-12 09:35:00 51°32.185 2°50.76 -999 -999 -999 -999 -999
2008-09-12 09:35:10 51°32.17 2°50.714 -999 -999 -999 -999 -999
2008-09-12 09:35:20 51°32.155 2°50.67 -999 -999 -999 -999 -999
2008-09-12 09:35:30 51°32.141 2°50.629 -999 -999 -999 -999 -999
2008-09-12 09:35:40 51°32.124 2°50.58 -999 -999 -999 -999 -999
2008-09-12 09:35:50 51°32.109 2°50.535 -999 -999 -999 -999 -999
2008-09-12 09:36:00 51°32.094 2°50.49 -999 -999 -999 -999 -999
2008-09-12 09:36:10 51°32.079 2°50.444 -999 -999 -999 -999 -999
2008-09-12 09:36:20 51°32.065 2°50.404 -999 -999 -999 -999 -999
2008-09-12 09:36:30 51°32.049 2°50.354 -999 -999 -999 -999 -999
2008-09-12 09:36:40 51°32.034 2°50.309 -999 -999 -999 -999 -999
2008-09-12 09:36:50 51°32.019 2°50.264 -999 -999 -999 -999 -999
2008-09-12 09:37:00 51°32.005 2°50.223 -999 -999 -999 -999 -999
2008-09-12 09:37:10 51°31.991 2°50.178 -999 -999 -999 -999 -999
2008-09-12 09:37:20 51°31.974 2°50.128 -999 -999 -999 -999 -999
2008-09-12 09:37:30 51°31.959 2°50.083 -999 -999 -999 -999 -999
2008-09-12 09:37:40 51°31.945 2°50.043 -999 -999 -999 -999 -999
2008-09-12 09:37:50 51°31.927 2°49.995 -999 -999 -999 -999 -999
2008-09-12 09:38:00 51°31.911 2°49.952 -999 -999 -999 -999 -999
2008-09-12 09:38:10 51°31.895 2°49.909 -999 -999 -999 -999 -999
2008-09-12 09:38:20 51°31.88 2°49.87 -999 -999 -999 -999 -999
2008-09-12 09:38:30 51°31.864 2°49.826 -999 -999 -999 -999 -999
2008-09-12 09:38:40 51°31.848 2°49.782 -999 -999 -999 -999 -999
2008-09-12 09:38:50 51°31.831 2°49.733 -999 -999 -999 -999 -999
2008-09-12 09:39:00 51°31.818 2°49.692 -999 -999 -999 -999 -999
2008-09-12 09:39:10 51°31.803 2°49.647 -999 -999 -999 -999 -999
2008-09-12 09:39:20 51°31.789 2°49.602 -999 -999 -999 -999 -999
2008-09-12 09:39:30 51°31.774 2°49.557 -999 -999 -999 -999 -999
2008-09-12 09:39:40 51°31.758 2°49.513 -999 -999 -999 -999 -999
2008-09-12 09:39:50 51°31.741 2°49.47 -999 -999 -999 -999 -999
2008-09-12 09:40:00 51°31.723 2°49.428 -999 -999 -999 -999 -999
2008-09-12 09:40:10 51°31.705 2°49.386 -999 -999 -999 -999 -999
2008-09-12 09:40:20 51°31.688 2°49.344 -999 -999 -999 -999 -999
2008-09-12 09:40:30 51°31.671 2°49.301 -999 -999 -999 -999 -999
2008-09-12 09:40:40 51°31.654 2°49.258 -999 -999 -999 -999 -999
2008-09-12 09:40:50 51°31.636 2°49.217 -999 -999 -999 -999 -999
2008-09-12 09:41:00 51°31.617 2°49.176 -999 -999 -999 -999 -999
2008-09-12 09:41:10 51°31.599 2°49.135 -999 -999 -999 -999 -999
2008-09-12 09:41:20 51°31.581 2°49.093 -999 -999 -999 -999 -999
2008-09-12 09:41:30 51°31.564 2°49.051 -999 -999 -999 -999 -999
2008-09-12 09:41:40 51°31.545 2°49.004 -999 -999 -999 -999 -999
2008-09-12 09:41:50 51°31.53 2°48.966 -999 -999 -999 -999 -999
2008-09-12 09:42:00 51°31.511 2°48.92 -999 -999 -999 -999 -999
2008-09-12 09:42:10 51°31.493 2°48.878 -999 -999 -999 -999 -999
2008-09-12 09:42:20 51°31.478 2°48.84 -999 -999 -999 -999 -999
2008-09-12 09:42:30 51°31.46 2°48.798 -999 -999 -999 -999 -999
2008-09-12 09:42:40 51°31.442 2°48.756 -999 -999 -999 -999 -999
2008-09-12 09:42:50 51°31.423 2°48.71 -999 -999 -999 -999 -999
2008-09-12 09:43:00 51°31.405 2°48.669 -999 -999 -999 -999 -999
2008-09-12 09:43:10 51°31.389 2°48.631 -999 -999 -999 -999 -999
2008-09-12 09:43:20 51°31.372 2°48.589 -999 -999 -999 -999 -999
2008-09-12 09:43:30 51°31.355 2°48.546 -999 -999 -999 -999 -999
2008-09-12 09:43:40 51°31.337 2°48.499 -999 -999 -999 -999 -999
2008-09-12 09:43:50 51°31.32 2°48.456 -999 -999 -999 -999 -999
2008-09-12 09:44:00 51°31.304 2°48.418 -999 -999 -999 -999 -999
2008-09-12 09:44:10 51°31.288 2°48.375 -999 -999 -999 -999 -999
2008-09-12 09:44:20 51°31.271 2°48.327 -999 -999 -999 -999 -999
2008-09-12 09:44:30 51°31.254 2°48.284 -999 -999 -999 -999 -999
2008-09-12 09:44:40 51°31.237 2°48.241 -999 -999 -999 -999 -999
2008-09-12 09:44:50 51°31.222 2°48.203 -999 -999 -999 -999 -999
2008-09-12 09:45:00 51°31.205 2°48.161 -999 -999 -999 -999 -999
2008-09-12 09:45:10 51°31.185 2°48.116 -999 -999 -999 -999 -999
2008-09-12 09:45:20 51°31.17 2°48.078 -999 -999 -999 -999 -999
2008-09-12 09:45:30 51°31.152 2°48.036 -999 -999 -999 -999 -999
2008-09-12 09:45:40 51°31.135 2°47.995 -999 -999 -999 -999 -999
2008-09-12 09:45:50 51°31.115 2°47.949 -999 -999 -999 -999 -999
2008-09-12 09:46:00 51°31.1 2°47.912 -999 -999 -999 -999 -999
2008-09-12 09:46:10 51°31.082 2°47.87 -999 -999 -999 -999 -999
2008-09-12 09:46:20 51°31.065 2°47.828 -999 -999 -999 -999 -999
2008-09-12 09:46:30 51°31.048 2°47.786 -999 -999 -999 -999 -999
2008-09-12 09:46:40 51°31.029 2°47.74 -999 -999 -999 -999 -999
2008-09-12 09:46:50 51°31.014 2°47.703 -999 -999 -999 -999 -999
2008-09-12 09:47:00 51°30.997 2°47.661 -999 -999 -999 -999 -999
2008-09-12 09:47:10 51°30.98 2°47.619 -999 -999 -999 -999 -999
2008-09-12 09:47:20 51°30.961 2°47.573 -999 -999 -999 -999 -999
2008-09-12 09:47:30 51°30.944 2°47.53 -999 -999 -999 -999 -999
2008-09-12 09:47:40 51°30.93 2°47.491 -999 -999 -999 -999 -999
2008-09-12 09:47:50 51°30.913 2°47.443 -999 -999 -999 -999 -999
2008-09-12 09:48:00 51°30.897 2°47.4 -999 -999 -999 -999 -999
2008-09-12 09:48:10 51°30.881 2°47.357 -999 -999 -999 -999 -999
2008-09-12 09:48:20 51°30.865 2°47.314 -999 -999 -999 -999 -999
2008-09-12 09:48:30 51°30.849 2°47.271 -999 -999 -999 -999 -999
2008-09-12 09:48:40 51°30.832 2°47.229 -999 -999 -999 -999 -999
2008-09-12 09:48:50 51°30.815 2°47.187 -999 -999 -999 -999 -999
2008-09-12 09:49:00 51°30.799 2°47.144 -999 -999 -999 -999 -999
2008-09-12 09:49:10 51°30.783 2°47.102 -999 -999 -999 -999 -999
2008-09-12 09:49:20 51°30.765 2°47.06 -999 -999 -999 -999 -999
2008-09-12 09:49:30 51°30.749 2°47.018 -999 -999 -999 -999 -999
2008-09-12 09:49:40 51°30.732 2°46.976 -999 -999 -999 -999 -999
2008-09-12 09:49:50 51°30.717 2°46.933 -999 -999 -999 -999 -999
2008-09-12 09:50:00 51°30.701 2°46.89 -999 -999 -999 -999 -999
2008-09-12 09:50:10 51°30.684 2°46.848 -999 -999 -999 -999 -999
2008-09-12 09:50:20 51°30.667 2°46.806 -999 -999 -999 -999 -999
2008-09-12 09:50:30 51°30.65 2°46.765 -999 -999 -999 -999 -999
2008-09-12 09:50:40 51°30.633 2°46.724 -999 -999 -999 -999 -999
2008-09-12 09:50:50 51°30.616 2°46.682 -999 -999 -999 -999 -999
2008-09-12 09:51:00 51°30.599 2°46.641 -999 -999 -999 -999 -999
2008-09-12 09:51:10 51°30.581 2°46.6 -999 -999 -999 -999 -999
2008-09-12 09:51:20 51°30.564 2°46.558 -999 -999 -999 -999 -999
2008-09-12 09:51:30 51°30.548 2°46.517 -999 -999 -999 -999 -999
2008-09-12 09:51:40 51°30.53 2°46.475 -999 -999 -999 -999 -999
2008-09-12 09:51:50 51°30.514 2°46.434 -999 -999 -999 -999 -999
2008-09-12 09:52:00 51°30.497 2°46.392 -999 -999 -999 -999 -999
2008-09-12 09:52:10 51°30.48 2°46.351 -999 -999 -999 -999 -999
2008-09-12 09:52:20 51°30.463 2°46.309 -999 -999 -999 -999 -999
2008-09-12 09:52:30 51°30.446 2°46.267 -999 -999 -999 -999 -999
2008-09-12 09:52:40 51°30.43 2°46.225 -999 -999 -999 -999 -999
2008-09-12 09:52:50 51°30.413 2°46.183 -999 -999 -999 -999 -999
2008-09-12 09:53:00 51°30.398 2°46.14 -999 -999 -999 -999 -999
2008-09-12 09:53:10 51°30.382 2°46.097 -999 -999 -999 -999 -999
2008-09-12 09:53:20 51°30.367 2°46.053 -999 -999 -999 -999 -999
2008-09-12 09:53:30 51°30.351 2°46.01 -999 -999 -999 -999 -999
2008-09-12 09:53:40 51°30.336 2°45.966 -999 -999 -999 -999 -999
2008-09-12 09:53:50 51°30.32 2°45.923 -999 -999 -999 -999 -999
2008-09-12 09:54:00 51°30.305 2°45.879 -999 -999 -999 -999 -999
2008-09-12 09:54:10 51°30.289 2°45.836 -999 -999 -999 -999 -999
2008-09-12 09:54:20 51°30.273 2°45.794 -999 -999 -999 -999 -999
2008-09-12 09:54:30 51°30.256 2°45.751 -999 -999 -999 -999 -999
2008-09-12 09:54:40 51°30.241 2°45.714 -999 -999 -999 -999 -999
2008-09-12 09:54:50 51°30.222 2°45.668 -999 -999 -999 -999 -999
2008-09-12 09:55:00 51°30.205 2°45.626 -999 -999 -999 -999 -999
2008-09-12 09:55:10 51°30.187 2°45.585 -999 -999 -999 -999 -999
2008-09-12 09:55:20 51°30.17 2°45.543 -999 -999 -999 -999 -999
2008-09-12 09:55:30 51°30.153 2°45.501 -999 -999 -999 -999 -999
2008-09-12 09:55:40 51°30.136 2°45.459 -999 -999 -999 -999 -999
2008-09-12 09:55:50 51°30.119 2°45.417 -999 -999 -999 -999 -999
2008-09-12 09:56:00 51°30.102 2°45.375 -999 -999 -999 -999 -999
2008-09-12 09:56:10 51°30.086 2°45.334 -999 -999 -999 -999 -999
2008-09-12 09:56:20 51°30.069 2°45.292 -999 -999 -999 -999 -999
2008-09-12 09:56:30 51°30.052 2°45.25 -999 -999 -999 -999 -999
2008-09-12 09:56:40 51°30.036 2°45.207 -999 -999 -999 -999 -999
2008-09-12 09:56:50 51°30.021 2°45.164 -999 -999 -999 -999 -999
2008-09-12 09:57:00 51°30.005 2°45.121 -999 -999 -999 -999 -999
2008-09-12 09:57:10 51°29.989 2°45.077 -999 -999 -999 -999 -999
2008-09-12 09:57:20 51°29.973 2°45.034 -999 -999 -999 -999 -999
2008-09-12 09:57:30 51°29.956 2°44.992 -999 -999 -999 -999 -999
2008-09-12 09:57:40 51°29.94 2°44.95 -999 -999 -999 -999 -999
2008-09-12 09:57:50 51°29.923 2°44.908 -999 -999 -999 -999 -999
2008-09-12 09:58:00 51°29.906 2°44.867 -999 -999 -999 -999 -999
2008-09-12 09:58:10 51°29.889 2°44.825 -999 -999 -999 -999 -999
2008-09-12 09:58:20 51°29.873 2°44.783 -999 -999 -999 -999 -999
2008-09-12 09:58:30 51°29.857 2°44.741 -999 -999 -999 -999 -999
2008-09-12 09:58:40 51°29.842 2°44.698 -999 -999 -999 -999 -999
2008-09-12 09:58:50 51°29.827 2°44.655 -999 -999 -999 -999 -999
2008-09-12 09:59:00 51°29.811 2°44.612 -999 -999 -999 -999 -999
2008-09-12 09:59:10 51°29.796 2°44.569 -999 -999 -999 -999 -999
2008-09-12 09:59:20 51°29.78 2°44.527 -999 -999 -999 -999 -999
2008-09-12 09:59:30 51°29.765 2°44.483 -999 -999 -999 -999 -999
2008-09-12 09:59:40 51°29.75 2°44.441 -999 -999 -999 -999 -999
2008-09-12 09:59:50 51°29.734 2°44.398 -999 -999 -999 -999 -999
2008-09-12 10:00:00 51°29.718 2°44.356 -999 -999 -999 -999 -999
2008-09-12 10:00:10 51°29.703 2°44.313 -999 -999 -999 -999 -999
2008-09-12 10:00:20 51°29.687 2°44.271 -999 -999 -999 -999 -999
2008-09-12 10:00:30 51°29.672 2°44.228 -999 -999 -999 -999 -999
2008-09-12 10:00:40 51°29.657 2°44.191 -999 -999 -999 -999 -999
2008-09-12 10:00:50 51°29.638 2°44.147 -999 -999 -999 -999 -999
2008-09-12 10:01:00 51°29.621 2°44.106 -999 -999 -999 -999 -999
2008-09-12 10:01:10 51°29.605 2°44.069 -999 -999 -999 -999 -999
2008-09-12 10:01:20 51°29.587 2°44.023 -999 -999 -999 -999 -999
2008-09-12 10:01:30 51°29.57 2°43.983 -999 -999 -999 -999 -999
2008-09-12 10:01:40 51°29.555 2°43.946 -999 -999 -999 -999 -999
2008-09-12 10:01:50 51°29.536 2°43.901 -999 -999 -999 -999 -999
2008-09-12 10:02:00 51°29.52 2°43.86 -999 -999 -999 -999 -999
2008-09-12 10:02:10 51°29.503 2°43.818 -999 -999 -999 -999 -999
2008-09-12 10:02:20 51°29.487 2°43.777 -999 -999 -999 -999 -999
2008-09-12 10:02:30 51°29.47 2°43.735 -999 -999 -999 -999 -999
2008-09-12 10:02:40 51°29.454 2°43.694 -999 -999 -999 -999 -999
2008-09-12 10:02:50 51°29.437 2°43.652 -999 -999 -999 -999 -999
2008-09-12 10:03:00 51°29.421 2°43.61 -999 -999 -999 -999 -999
2008-09-12 10:03:10 51°29.406 2°43.568 -999 -999 -999 -999 -999
2008-09-12 10:03:20 51°29.391 2°43.524 -999 -999 -999 -999 -999
2008-09-12 10:03:30 51°29.376 2°43.481 -999 -999 -999 -999 -999
2008-09-12 10:03:40 51°29.361 2°43.438 -999 -999 -999 -999 -999
2008-09-12 10:03:50 51°29.347 2°43.4 -999 -999 -999 -999 -999
2008-09-12 10:04:00 51°29.33 2°43.352 -999 -999 -999 -999 -999
2008-09-12 10:04:10 51°29.315 2°43.309 -999 -999 -999 -999 -999
2008-09-12 10:04:20 51°29.299 2°43.267 -999 -999 -999 -999 -999
2008-09-12 10:04:30 51°29.282 2°43.225 -999 -999 -999 -999 -999
2008-09-12 10:04:40 51°29.268 2°43.187 -999 -999 -999 -999 -999
2008-09-12 10:04:50 51°29.25 2°43.141 -999 -999 -999 -999 -999
2008-09-12 10:05:00 51°29.234 2°43.098 -999 -999 -999 -999 -999
2008-09-12 10:05:10 51°29.219 2°43.056 -999 -999 -999 -999 -999
2008-09-12 10:05:20 51°29.204 2°43.013 -999 -999 -999 -999 -999
2008-09-12 10:05:30 51°29.188 2°42.97 -999 -999 -999 -999 -999
2008-09-12 10:05:40 51°29.172 2°42.928 -999 -999 -999 -999 -999
2008-09-12 10:05:50 51°29.156 2°42.885 -999 -999 -999 -999 -999
2008-09-12 10:06:00 51°29.139 2°42.844 -999 -999 -999 -999 -999
2008-09-12 10:06:10 51°29.122 2°42.803 -999 -999 -999 -999 -999
2008-09-12 10:06:20 51°29.105 2°42.762 -999 -999 -999 -999 -999
2008-09-12 10:06:30 51°29.087 2°42.721 -999 -999 -999 -999 -999
2008-09-12 10:06:40 51°29.07 2°42.68 -999 -999 -999 -999 -999
2008-09-12 10:06:50 51°29.053 2°42.639 -999 -999 -999 -999 -999
2008-09-12 10:07:00 51°29.037 2°42.602 -999 -999 -999 -999 -999
2008-09-12 10:07:10 51°29.019 2°42.556 -999 -999 -999 -999 -999
2008-09-12 10:07:20 51°29.002 2°42.515 -999 -999 -999 -999 -999
2008-09-12 10:07:30 51°28.985 2°42.474 -999 -999 -999 -999 -999
2008-09-12 10:07:40 51°28.968 2°42.432 -999 -999 -999 -999 -999
2008-09-12 10:07:50 51°28.952 2°42.39 -999 -999 -999 -999 -999
2008-09-12 10:08:00 51°28.935 2°42.349 -999 -999 -999 -999 -999
2008-09-12 10:08:10 51°28.919 2°42.306 -999 -999 -999 -999 -999
2008-09-12 10:08:20 51°28.903 2°42.263 -999 -999 -999 -999 -999
2008-09-12 10:08:30 51°28.887 2°42.221 -999 -999 -999 -999 -999
2008-09-12 10:08:40 51°28.871 2°42.178 -999 -999 -999 -999 -999
2008-09-12 10:08:50 51°28.854 2°42.136 -999 -999 -999 -999 -999
2008-09-12 10:09:00 51°28.839 2°42.093 -999 -999 -999 -999 -999
2008-09-12 10:09:10 51°28.824 2°42.049 -999 -999 -999 -999 -999
2008-09-12 10:09:20 51°28.809 2°42.006 -999 -999 -999 -999 -999
2008-09-12 10:09:30 51°28.794 2°41.962 -999 -999 -999 -999 -999
2008-09-12 10:09:40 51°28.779 2°41.919 -999 -999 -999 -999 -999
2008-09-12 10:09:50 51°28.764 2°41.875 -999 -999 -999 -999 -999
2008-09-12 10:10:00 51°28.749 2°41.832 -999 -999 -999 -999 -999
2008-09-12 10:10:10 51°28.734 2°41.787 -999 -999 -999 -999 -999
2008-09-12 10:10:20 51°28.719 2°41.743 -999 -999 -999 -999 -999
2008-09-12 10:10:30 51°28.705 2°41.7 -999 -999 -999 -999 -999
2008-09-12 10:10:40 51°28.69 2°41.656 -999 -999 -999 -999 -999
2008-09-12 10:10:50 51°28.675 2°41.613 -999 -999 -999 -999 -999
2008-09-12 10:11:00 51°28.66 2°41.568 -999 -999 -999 -999 -999
2008-09-12 10:11:10 51°28.646 2°41.524 -999 -999 -999 -999 -999
2008-09-12 10:11:20 51°28.632 2°41.479 -999 -999 -999 -999 -999
2008-09-12 10:11:30 51°28.618 2°41.435 -999 -999 -999 -999 -999
2008-09-12 10:11:40 51°28.605 2°41.39 -999 -999 -999 -999 -999
2008-09-12 10:11:50 51°28.591 2°41.345 -999 -999 -999 -999 -999
2008-09-12 10:12:00 51°28.578 2°41.3 -999 -999 -999 -999 -999
2008-09-12 10:12:10 51°28.563 2°41.256 -999 -999 -999 -999 -999
2008-09-12 10:12:20 51°28.55 2°41.212 -999 -999 -999 -999 -999
2008-09-12 10:12:30 51°28.535 2°41.168 -999 -999 -999 -999 -999
2008-09-12 10:12:40 51°28.521 2°41.123 -999 -999 -999 -999 -999
2008-09-12 10:12:50 51°28.507 2°41.079 -999 -999 -999 -999 -999
2008-09-12 10:13:00 51°28.493 2°41.035 -999 -999 -999 -999 -999
2008-09-12 10:13:10 51°28.479 2°40.991 -999 -999 -999 -999 -999
2008-09-12 10:13:20 51°28.464 2°40.947 -999 -999 -999 -999 -999
2008-09-12 10:13:30 51°28.45 2°40.903 -999 -999 -999 -999 -999
2008-09-12 10:13:40 51°28.435 2°40.86 -999 -999 -999 -999 -999
2008-09-12 10:13:50 51°28.419 2°40.818 -999 -999 -999 -999 -999
2008-09-12 10:14:00 51°28.403 2°40.775 -999 -999 -999 -999 -999
2008-09-12 10:14:10 51°28.388 2°40.733 -999 -999 -999 -999 -999
2008-09-12 10:14:20 51°28.372 2°40.69 -999 -999 -999 -999 -999
2008-09-12 10:14:30 51°28.357 2°40.648 -999 -999 -999 -999 -999
2008-09-12 10:14:40 51°28.341 2°40.606 -999 -999 -999 -999 -999
2008-09-12 10:14:50 51°28.326 2°40.563 -999 -999 -999 -999 -999
2008-09-12 10:15:00 51°28.31 2°40.52 -999 -999 -999 -999 -999
2008-09-12 10:15:10 51°28.295 2°40.478 -999 -999 -999 -999 -999
2008-09-12 10:15:20 51°28.28 2°40.435 -999 -999 -999 -999 -999
2008-09-12 10:15:30 51°28.264 2°40.393 -999 -999 -999 -999 -999
2008-09-12 10:15:40 51°28.249 2°40.35 -999 -999 -999 -999 -999
2008-09-12 10:15:50 51°28.234 2°40.308 -999 -999 -999 -999 -999
2008-09-12 10:16:00 51°28.22 2°40.265 -999 -999 -999 -999 -999
2008-09-12 10:16:10 51°28.205 2°40.222 -999 -999 -999 -999 -999
2008-09-12 10:16:20 51°28.19 2°40.179 -999 -999 -999 -999 -999
2008-09-12 10:16:30 51°28.175 2°40.136 -999 -999 -999 -999 -999
2008-09-12 10:16:40 51°28.16 2°40.093 -999 -999 -999 -999 -999
2008-09-12 10:16:50 51°28.146 2°40.05 -999 -999 -999 -999 -999
2008-09-12 10:17:00 51°28.131 2°40.007 -999 -999 -999 -999 -999
2008-09-12 10:17:10 51°28.116 2°39.964 -999 -999 -999 -999 -999
2008-09-12 10:17:20 51°28.102 2°39.921 -999 -999 -999 -999 -999
2008-09-12 10:17:30 51°28.087 2°39.878 -999 -999 -999 -999 -999
2008-09-12 10:17:40 51°28.074 2°39.834 -999 -999 -999 -999 -999
2008-09-12 10:17:50 51°28.06 2°39.791 -999 -999 -999 -999 -999
2008-09-12 10:18:00 51°28.045 2°39.748 -999 -999 -999 -999 -999
2008-09-12 10:18:10 51°28.03 2°39.705 -999 -999 -999 -999 -999
2008-09-12 10:18:20 51°28.015 2°39.662 -999 -999 -999 -999 -999
2008-09-12 10:18:30 51°28 2°39.619 -999 -999 -999 -999 -999
2008-09-12 10:18:40 51°27.985 2°39.576 -999 -999 -999 -999 -999
2008-09-12 10:18:50 51°27.972 2°39.538 -999 -999 -999 -999 -999
2008-09-12 10:19:00 51°27.956 2°39.491 -999 -999 -999 -999 -999
2008-09-12 10:19:10 51°27.942 2°39.448 -999 -999 -999 -999 -999
2008-09-12 10:19:20 51°27.927 2°39.406 -999 -999 -999 -999 -999
2008-09-12 10:19:30 51°27.913 2°39.363 -999 -999 -999 -999 -999
2008-09-12 10:19:40 51°27.898 2°39.32 -999 -999 -999 -999 -999
2008-09-12 10:19:50 51°27.883 2°39.277 -999 -999 -999 -999 -999
2008-09-12 10:20:00 51°27.87 2°39.233 -999 -999 -999 -999 -999
2008-09-12 10:20:10 51°27.856 2°39.189 -999 -999 -999 -999 -999
2008-09-12 10:20:20 51°27.843 2°39.146 -999 -999 -999 -999 -999
2008-09-12 10:20:30 51°27.83 2°39.101 -999 -999 -999 -999 -999
2008-09-12 10:20:40 51°27.817 2°39.056 -999 -999 -999 -999 -999
2008-09-12 10:20:50 51°27.805 2°39.011 -999 -999 -999 -999 -999
2008-09-12 10:21:00 51°27.793 2°38.966 -999 -999 -999 -999 -999
2008-09-12 10:21:10 51°27.78 2°38.921 -999 -999 -999 -999 -999
2008-09-12 10:21:20 51°27.768 2°38.876 -999 -999 -999 -999 -999
2008-09-12 10:21:30 51°27.756 2°38.831 -999 -999 -999 -999 -999
2008-09-12 10:21:40 51°27.743 2°38.787 -999 -999 -999 -999 -999
2008-09-12 10:21:50 51°27.73 2°38.742 -999 -999 -999 -999 -999
2008-09-12 10:22:00 51°27.717 2°38.697 -999 -999 -999 -999 -999
2008-09-12 10:22:10 51°27.704 2°38.653 -999 -999 -999 -999 -999
2008-09-12 10:22:20 51°27.692 2°38.608 -999 -999 -999 -999 -999
2008-09-12 10:22:30 51°27.679 2°38.564 -999 -999 -999 -999 -999
2008-09-12 10:22:40 51°27.666 2°38.519 -999 -999 -999 -999 -999
2008-09-12 10:22:50 51°27.653 2°38.475 -999 -999 -999 -999 -999
2008-09-12 10:23:00 51°27.639 2°38.432 -999 -999 -999 -999 -999
2008-09-12 10:23:10 51°27.626 2°38.393 -999 -999 -999 -999 -999
2008-09-12 10:23:20 51°27.61 2°38.346 -999 -999 -999 -999 -999
2008-09-12 10:23:30 51°27.595 2°38.302 -999 -999 -999 -999 -999
2008-09-12 10:23:40 51°27.583 2°38.263 -999 -999 -999 -999 -999
2008-09-12 10:23:50 51°27.567 2°38.216 -999 -999 -999 -999 -999
2008-09-12 10:24:00 51°27.552 2°38.173 -999 -999 -999 -999 -999
2008-09-12 10:24:10 51°27.539 2°38.129 -999 -999 -999 -999 -999
2008-09-12 10:24:20 51°27.527 2°38.084 -999 -999 -999 -999 -999
2008-09-12 10:24:30 51°27.514 2°38.039 -999 -999 -999 -999 -999
2008-09-12 10:24:40 51°27.501 2°37.994 -999 -999 -999 -999 -999
2008-09-12 10:24:50 51°27.489 2°37.95 -999 -999 -999 -999 -999
2008-09-12 10:25:00 51°27.477 2°37.905 -999 -999 -999 -999 -999
2008-09-12 10:25:10 51°27.464 2°37.86 -999 -999 -999 -999 -999
2008-09-12 10:25:20 51°27.451 2°37.815 -999 -999 -999 -999 -999
2008-09-12 10:25:30 51°27.438 2°37.771 -999 -999 -999 -999 -999
2008-09-12 10:25:40 51°27.425 2°37.727 -999 -999 -999 -999 -999
2008-09-12 10:25:50 51°27.41 2°37.684 -999 -999 -999 -999 -999
2008-09-12 10:26:00 51°27.396 2°37.641 -999 -999 -999 -999 -999
2008-09-12 10:26:10 51°27.382 2°37.597 -999 -999 -999 -999 -999
2008-09-12 10:26:20 51°27.368 2°37.554 -999 -999 -999 -999 -999
2008-09-12 10:26:30 51°27.355 2°37.509 -999 -999 -999 -999 -999
2008-09-12 10:26:40 51°27.342 2°37.465 -999 -999 -999 -999 -999
2008-09-12 10:26:50 51°27.329 2°37.421 -999 -999 -999 -999 -999
2008-09-12 10:27:00 51°27.317 2°37.376 -999 -999 -999 -999 -999
2008-09-12 10:27:10 51°27.304 2°37.331 -999 -999 -999 -999 -999
2008-09-12 10:27:20 51°27.291 2°37.287 -999 -999 -999 -999 -999
2008-09-12 10:27:30 51°27.278 2°37.243 -999 -999 -999 -999 -999
2008-09-12 10:27:40 51°27.265 2°37.199 -999 -999 -999 -999 -999
2008-09-12 10:27:50 51°27.253 2°37.16 -999 -999 -999 -999 -999
2008-09-12 10:28:00 51°27.239 2°37.111 -999 -999 -999 -999 -999
2008-09-12 10:28:10 51°27.226 2°37.067 -999 -999 -999 -999 -999
2008-09-12 10:28:20 51°27.216 2°37.026 -999 -999 -999 -999 -999
2008-09-12 10:28:30 51°27.203 2°36.977 -999 -999 -999 -999 -999
2008-09-12 10:28:40 51°27.19 2°36.933 -999 -999 -999 -999 -999
2008-09-12 10:28:50 51°27.178 2°36.889 -999 -999 -999 -999 -999
2008-09-12 10:29:00 51°27.165 2°36.845 -999 -999 -999 -999 -999
2008-09-12 10:29:10 51°27.152 2°36.801 -999 -999 -999 -999 -999
2008-09-12 10:29:20 51°27.139 2°36.757 -999 -999 -999 -999 -999
2008-09-12 10:29:30 51°27.127 2°36.712 -999 -999 -999 -999 -999
2008-09-12 10:29:40 51°27.116 2°36.672 -999 -999 -999 -999 -999
2008-09-12 10:29:50 51°27.104 2°36.629 -999 -999 -999 -999 -999
2008-09-12 10:30:00 51°27.089 2°36.581 -999 -999 -999 -999 -999
2008-09-12 10:30:10 51°27.077 2°36.537 -999 -999 -999 -999 -999
2008-09-12 10:30:20 51°27.065 2°36.493 -999 -999 -999 -999 -999
2008-09-12 10:30:30 51°27.053 2°36.454 -999 -999 -999 -999 -999
2008-09-12 10:30:40 51°27.041 2°36.41 -999 -999 -999 -999 -999
2008-09-12 10:30:50 51°27.027 2°36.361 -999 -999 -999 -999 -999
2008-09-12 10:31:00 51°27.015 2°36.317 -999 -999 -999 -999 -999
2008-09-12 10:31:10 51°27.003 2°36.273 -999 -999 -999 -999 -999
2008-09-12 10:31:20 51°26.991 2°36.229 -999 -999 -999 -999 -999
2008-09-12 10:31:30 51°26.978 2°36.185 -999 -999 -999 -999 -999
2008-09-12 10:31:40 51°26.967 2°36.145 -999 -999 -999 -999 -999
2008-09-12 10:31:50 51°26.953 2°36.096 -999 -999 -999 -999 -999
2008-09-12 10:32:00 51°26.94 2°36.052 -999 -999 -999 -999 -999
2008-09-12 10:32:10 51°26.928 2°36.008 -999 -999 -999 -999 -999
2008-09-12 10:32:20 51°26.917 2°35.963 -999 -999 -999 -999 -999
2008-09-12 10:32:30 51°26.907 2°35.922 -999 -999 -999 -999 -999
2008-09-12 10:32:40 51°26.895 2°35.876 -999 -999 -999 -999 -999
2008-09-12 10:32:50 51°26.883 2°35.826 -999 -999 -999 -999 -999
2008-09-12 10:33:00 51°26.871 2°35.782 -999 -999 -999 -999 -999
2008-09-12 10:33:10 51°26.86 2°35.736 -999 -999 -999 -999 -999
2008-09-12 10:33:20 51°26.848 2°35.691 -999 -999 -999 -999 -999
2008-09-12 10:33:30 51°26.837 2°35.646 -999 -999 -999 -999 -999
2008-09-12 10:33:40 51°26.825 2°35.601 -999 -999 -999 -999 -999
2008-09-12 10:33:50 51°26.814 2°35.561 -999 -999 -999 -999 -999
2008-09-12 10:34:00 51°26.801 2°35.511 -999 -999 -999 -999 -999
2008-09-12 10:34:10 51°26.789 2°35.466 -999 -999 -999 -999 -999
2008-09-12 10:34:20 51°26.778 2°35.426 -999 -999 -999 -999 -999
2008-09-12 10:34:30 51°26.766 2°35.381 -999 -999 -999 -999 -999
2008-09-12 10:34:40 51°26.751 2°35.333 -999 -999 -999 -999 -999
2008-09-12 10:34:50 51°26.738 2°35.289 -999 -999 -999 -999 -999
2008-09-12 10:35:00 51°26.725 2°35.244 -999 -999 -999 -999 -999
2008-09-12 10:35:10 51°26.713 2°35.204 -999 -999 -999 -999 -999
2008-09-12 10:35:20 51°26.701 2°35.159 -999 -999 -999 -999 -999
2008-09-12 10:35:30 51°26.688 2°35.109 -999 -999 -999 -999 -999
2008-09-12 10:35:40 51°26.676 2°35.064 -999 -999 -999 -999 -999
2008-09-12 10:35:50 51°26.665 2°35.023 -999 -999 -999 -999 -999
2008-09-12 10:36:00 51°26.652 2°34.979 -999 -999 -999 -999 -999
2008-09-12 10:36:10 51°26.639 2°34.934 -999 -999 -999 -999 -999
2008-09-12 10:36:20 51°26.626 2°34.889 -999 -999 -999 -999 -999
2008-09-12 10:36:30 51°26.613 2°34.844 -999 -999 -999 -999 -999
2008-09-12 10:36:40 51°26.599 2°34.795 -999 -999 -999 -999 -999
2008-09-12 10:36:50 51°26.588 2°34.754 -999 -999 -999 -999 -999
2008-09-12 10:37:00 51°26.576 2°34.71 -999 -999 -999 -999 -999
2008-09-12 10:37:10 51°26.564 2°34.664 -999 -999 -999 -999 -999
2008-09-12 10:37:20 51°26.55 2°34.615 -999 -999 -999 -999 -999
2008-09-12 10:37:30 51°26.538 2°34.57 -999 -999 -999 -999 -999
2008-09-12 10:37:40 51°26.526 2°34.53 -999 -999 -999 -999 -999
2008-09-12 10:37:50 51°26.512 2°34.486 -999 -999 -999 -999 -999
2008-09-12 10:38:00 51°26.498 2°34.442 -999 -999 -999 -999 -999
2008-09-12 10:38:10 51°26.483 2°34.399 -999 -999 -999 -999 -999
2008-09-12 10:38:20 51°26.467 2°34.351 -999 -999 -999 -999 -999
2008-09-12 10:38:30 51°26.453 2°34.307 -999 -999 -999 -999 -999
2008-09-12 10:38:40 51°26.44 2°34.263 -999 -999 -999 -999 -999
2008-09-12 10:38:50 51°26.427 2°34.224 -999 -999 -999 -999 -999
2008-09-12 10:39:00 51°26.412 2°34.176 -999 -999 -999 -999 -999
2008-09-12 10:39:10 51°26.399 2°34.132 -999 -999 -999 -999 -999
2008-09-12 10:39:20 51°26.386 2°34.088 -999 -999 -999 -999 -999
2008-09-12 10:39:30 51°26.372 2°34.044 -999 -999 -999 -999 -999
2008-09-12 10:39:40 51°26.36 2°34.005 -999 -999 -999 -999 -999
2008-09-12 10:39:50 51°26.346 2°33.961 -999 -999 -999 -999 -999
2008-09-12 10:40:00 51°26.333 2°33.917 -999 -999 -999 -999 -999
2008-09-12 10:40:10 51°26.321 2°33.873 -999 -999 -999 -999 -999
2008-09-12 10:40:20 51°26.307 2°33.824 -999 -999 -999 -999 -999
2008-09-12 10:40:30 51°26.295 2°33.779 -999 -999 -999 -999 -999
2008-09-12 10:40:40 51°26.285 2°33.738 -999 -999 -999 -999 -999
2008-09-12 10:40:50 51°26.273 2°33.693 -999 -999 -999 -999 -999
2008-09-12 10:41:00 51°26.26 2°33.645 -999 -999 -999 -999 -999
2008-09-12 10:41:10 51°26.247 2°33.601 -999 -999 -999 -999 -999
2008-09-12 10:41:20 51°26.234 2°33.557 -999 -999 -999 -999 -999
2008-09-12 10:41:30 51°26.222 2°33.518 -999 -999 -999 -999 -999
2008-09-12 10:41:40 51°26.208 2°33.474 -999 -999 -999 -999 -999
2008-09-12 10:41:50 51°26.195 2°33.431 -999 -999 -999 -999 -999
2008-09-12 10:42:00 51°26.181 2°33.383 -999 -999 -999 -999 -999
2008-09-12 10:42:10 51°26.169 2°33.344 -999 -999 -999 -999 -999
2008-09-12 10:42:20 51°26.157 2°33.3 -999 -999 -999 -999 -999
2008-09-12 10:42:30 51°26.144 2°33.256 -999 -999 -999 -999 -999
2008-09-12 10:42:40 51°26.13 2°33.207 -999 -999 -999 -999 -999
2008-09-12 10:42:50 51°26.117 2°33.163 -999 -999 -999 -999 -999
2008-09-12 10:43:00 51°26.106 2°33.124 -999 -999 -999 -999 -999
2008-09-12 10:43:10 51°26.094 2°33.079 -999 -999 -999 -999 -999
2008-09-12 10:43:20 51°26.082 2°33.029 -999 -999 -999 -999 -999
2008-09-12 10:43:30 51°26.071 2°32.984 -999 -999 -999 -999 -999
2008-09-12 10:43:40 51°26.06 2°32.943 -999 -999 -999 -999 -999
2008-09-12 10:43:50 51°26.048 2°32.898 -999 -999 -999 -999 -999
2008-09-12 10:44:00 51°26.037 2°32.853 -999 -999 -999 -999 -999
2008-09-12 10:44:10 51°26.024 2°32.804 -999 -999 -999 -999 -999
2008-09-12 10:44:20 51°26.014 2°32.763 -999 -999 -999 -999 -999
2008-09-12 10:44:30 51°26.002 2°32.718 -999 -999 -999 -999 -999
2008-09-12 10:44:40 51°25.991 2°32.672 -999 -999 -999 -999 -999
2008-09-12 10:44:50 51°25.977 2°32.623 -999 -999 -999 -999 -999
2008-09-12 10:45:00 51°25.966 2°32.584 -999 -999 -999 -999 -999
2008-09-12 10:45:10 51°25.952 2°32.54 -999 -999 -999 -999 -999
2008-09-12 10:45:20 51°25.939 2°32.496 -999 -999 -999 -999 -999
2008-09-12 10:45:30 51°25.925 2°32.448 -999 -999 -999 -999 -999
2008-09-12 10:45:40 51°25.914 2°32.408 -999 -999 -999 -999 -999
2008-09-12 10:45:50 51°25.9 2°32.364 -999 -999 -999 -999 -999
2008-09-12 10:46:00 51°25.887 2°32.32 -999 -999 -999 -999 -999
2008-09-12 10:46:10 51°25.875 2°32.276 -999 -999 -999 -999 -999
2008-09-12 10:46:20 51°25.861 2°32.228 -999 -999 -999 -999 -999
2008-09-12 10:46:30 51°25.849 2°32.188 -999 -999 -999 -999 -999
2008-09-12 10:46:40 51°25.836 2°32.144 -999 -999 -999 -999 -999